This demonstration page uses our WeatherBlox Daily Observations layout. Learn more.

Left ArrowRight Arrow

38.80484, -77.04692

Hourly Observations for October 31, 2019

Temp ( °F °C ) Dew Point ( °F °C ) Humidity (%) Winds ( mph kmh ) Pressure ( in mb ) Visibility ( mi km ) Precip ( " mm )
12:04 am 00:04 Cloudy 62 16.7 60 15.6 93 93 S 3 6 30.06 1018 10 16 0.00 0.00
12:20 am 00:20 Cloudy with Light Rain 62 16.7 60 15.6 93 93 SSW 3 6 30.06 1018 7 11 0.00 0.00
12:52 am 00:52 Cloudy 62 16.7 60 15.6 93 93 SSE 3 6 30.04 1017 10 16 0.01 0.25
1:12 am 01:12 Cloudy 62 16.7 60 15.6 93 93 Calm 30.04 1017 10 16 0.00 0.00
1:28 am 01:28 Cloudy 62 16.7 61 16.1 96 96 Calm 30.03 1017 8 13 0.00 0.00
1:48 am 01:48 Cloudy with Light Rain 63 17 61 16 94 94 S 6 9 30.03 1017 8 13 0.00 0.00
1:52 am 01:52 Cloudy with Light Rain 62 16.7 61 16.1 96 96 S 5 7 30.02 1017 7 11 0.00 0.00
2:45 am 02:45 Cloudy 62 16.7 61 16.1 96 96 Calm 30.00 1016 8 13 0.05 1.27
2:52 am 02:52 Cloudy 62 16.7 61 16.1 96 96 Calm 30.00 1016 9 14 0.05 1.27
3:22 am 03:22 Cloudy with Light Rain 62 16.7 61 16.1 96 96 Calm 29.99 1016 9 14 0.01 0.25
3:52 am 03:52 Cloudy with Light Rain 63 17.2 62 16.7 97 97 S 6 9 29.97 1015 4 6 0.04 1.02
4:18 am 04:18 Cloudy with Rain 64 17.8 63 17.2 96 96 S 7 11 29.96 1015 3 4 0.09 2.29
4:29 am 04:29 Cloudy with Light Rain 64 17.8 63 17.2 96 96 S 8 13 29.95 1014 3 5 0.12 3.05
4:38 am 04:38 Cloudy with Light Rain 64 17.8 63 17.2 96 96 S 8 13 29.95 1014 5 8 0.12 3.05
4:52 am 04:52 Cloudy with Light Rain 64 17.8 64 17.8 100 100 S 9 15 29.94 1014 4 6 0.15 3.81
5:07 am 05:07 Cloudy 65 18.3 64 17.8 97 97 S 13 20 29.94 1014 10 16 0.00 0.00
5:52 am 05:52 Cloudy 66 18.9 65 18.3 96 96 S 12 19 29.94 1014 10 16 0.00 0.00
6:52 am 06:52 Cloudy with Light Rain 66 18.9 65 18.3 96 96 S 10 17 29.91 1013 10 16 0.01 0.25
7:18 am 07:18 Cloudy 67 19.4 66 18.9 97 97 S 9 15 29.91 1013 10 16 0.00 0.00
7:52 am 07:52 Cloudy 67 19.4 65 18.3 93 93 S 9 15 29.91 1013 10 16 0.00 0.00
8:52 am 08:52 Cloudy 67 19.4 66 18.9 97 97 S 13 20 29.90 1013 10 16 0.00 0.00
9:52 am 09:52 Cloudy 69 20.6 67 19.4 93 93 S 14 22 29.89 1012 10 16 0.00 0.00
10:52 am 10:52 Cloudy 69 20.6 67 19.4 93 93 S 15 24 29.86 1011 10 16 0.00 0.00
11:52 am 11:52 Cloudy with Light Rain 70 21.1 67 19.4 90 90 S 12 19 29.84 1011 10 16 0.00 0.00
12:38 pm 12:38 Cloudy with Light Rain 70 21.1 67 19.4 90 90 S 15 24 29.81 1009 10 16 0.02 0.51
12:52 pm 12:52 Cloudy with Light Rain 70 21.1 68 20 93 93 S 14 22 29.81 1009 10 16 0.02 0.51
1:20 pm 13:20 Cloudy with Light Rain 71 21.7 69 20.6 94 94 S 12 19 29.79 1009 4 6 0.01 0.25
1:52 pm 13:52 Cloudy 72 22.2 69 20.6 91 91 S 14 22 29.76 1008 10 16 0.02 0.51
2:52 pm 14:52 Cloudy 73 22.8 70 21.1 90 90 S 17 28 29.71 1006 10 16 0.00 0.00
3:52 pm 15:52 Cloudy 75 23.9 69 20.6 82 82 S 16 26 29.69 1005 10 16 0.00 0.00
4:05 pm 16:05 Cloudy 75 23.9 69 20.6 82 82 S 16 26 29.68 1005 10 16 0.00 0.00
4:52 pm 16:52 Cloudy 75 23.9 68 20 79 79 S 16 26 29.65 1004 10 16 0.00 0.00
5:52 pm 17:52 Cloudy 76 24.4 69 20.6 79 79 S 18 30 29.62 1003 10 16 0.00 0.00
6:52 pm 18:52 Cloudy 75 23.9 68 20 79 79 S 18 30 29.59 1002 10 16 0.00 0.00
7:52 pm 19:52 Cloudy 77 25 68 20 74 74 S 24 39 29.54 1001 10 16 0.00 0.00
8:52 pm 20:52 Cloudy with Light Rain 76 24.4 68 20 77 77 S 25 41 29.52 1000 10 16 0.00 0.00
9:43 pm 21:43 Windy with Storms Likely 75 23.9 70 21.1 84 84 SSW 28 44 29.54 1000 9 14 0.01 0.25
9:49 pm 21:49 Cloudy with Strong Thunderstorms 73 23 72 22 94 94 SSW 21 33 29.54 1000 2 3 0.06 1.52
10:00 pm 22:00 Windy with Storms Likely 74 23.3 71 21.7 91 91 SW 23 37 29.55 1001 7 11 0.02 0.51
10:05 pm 22:05 Cloudy with Light Rain 74 23.3 71 21.7 91 91 SSW 23 37 29.55 1001 7 11 0.02 0.51
10:10 pm 22:10 Cloudy with Light Rain 75 23.9 71 21.7 88 88 SSW 20 31 29.56 1001 10 16 0.02 0.51
10:26 pm 22:26 Cloudy with Strong Thunderstorms 74 23.3 71 21.7 91 91 WNW 25 41 29.61 1003 4 6 0.02 0.51
10:29 pm 22:29 Cloudy with Strong Thunderstorms 69 20.6 65 18.3 87 87 NW 28 44 29.62 1003 2 2 0.02 0.51
10:33 pm 22:33 Cloudy with Strong Thunderstorms 63 17.2 59 15 87 87 WNW 21 33 29.63 1003 1 1 0.13 3.30
10:48 pm 22:48 Cloudy with Strong Thunderstorms 61 16 57 14 88 88 WNW 15 24 29.67 1005 4 6 0.74 18.80
10:52 pm 22:52 Cloudy with Thunderstorms 60 15.6 58 14.4 93 93 NW 13 20 29.67 1005 4 6 0.74 18.80
11:12 pm 23:12 Cloudy with Rain 58 14.4 53 11.7 84 84 WNW 26 43 29.70 1006 4 6 0.06 1.52
11:49 pm 23:49 Cloudy with Rain 55 13 48 9 77 77 WNW 21 33 29.77 1008 6 10 0.07 1.78
11:52 pm 23:52 Cloudy with Light Rain 56 13.3 49 9.4 77 77 WNW 15 24 29.77 1008 6 10 0.07 1.78

Powered by AerisWeather